Temperature
25 24 23 24 25 25 25 25 24 25 26 25 24 24 24 24 24 23 23 23 22 21 21 20 20 20 19 19 19 19 18 18 18 18 18 18 17 17 17 17 17 17 17 16
24 23 25 25 25 25 24 24 24 24 25 25 24 23 24 24 23 23 23 22 22 21 20 20 19 19 19 18 18 18 18 18 18 18 18 17 17 17 17 17 17 16 16 16
23 24 25 25 25 24 24 23 23 23 24 24 23 22 23 23 23 23 22 22 22 21 20 19 19 18 18 18 18 18 18 18 17 17 17 17 17 17 17 16 16 16 16 16
24 24 25 24 24 24 23 24 24 24 23 22 23 21 22 23 22 22 22 22 21 21 20 19 19 18 18 18 18 17 17 17 17 17 17 17 17 17 16 16 16 16 16 16
23 24 24 23 24 24 24 24 24 24 23 22 23 22 22 23 22 22 22 22 21 21 20 19 19 18 18 17 17 17 17 17 17 17 17 17 17 16 16 16 16 16 16 16
23 24 24 24 24 24 24 24 24 23 22 21 22 22 21 22 22 22 22 22 21 20 20 19 19 18 17 17 17 17 17 17 16 16 16 16 16 16 16 16 15 15 15 15
22 23 24 24 23 23 23 22 21 21 20 21 23 22 21 22 23 22 21 21 21 20 19 19 18 17 17 17 16 16 16 16 16 16 16 16 16 16 16 15 15 15 15 15
22 22 23 23 23 22 23 22 20 20 20 22 23 22 21 22 22 22 21 21 20 19 19 18 18 17 17 16 16 16 16 16 16 15 15 15 15 15 15 15 15 15 15 15
21 21 23 23 23 23 22 22 23 21 21 21 22 22 22 22 21 21 21 20 20 19 18 18 17 17 16 16 15 15 15 15 15 15 15 15 15 15 15 15 15 15 14 14
21 21 22 22 22 22 22 22 21 21 20 20 21 21 20 20 20 20 20 20 19 18 18 17 16 16 16 15 15 15 15 15 14 14 14 14 14 14 14 14 14 14 14 14
22 21 21 21 21 21 21 21 21 21 21 20 20 20 21 20 20 20 20 19 18 17 17 17 16 15 15 15 15 15 15 14 14 14 14 14 14 14 14 14 14 14 14 14
21 21 20 21 22 22 22 22 21 20 20 21 20 19 21 20 20 20 19 18 18 17 16 16 15 15 15 15 14 14 14 14 14 14 13 13 14 14 13 13 13 13 13 13
20 20 19 20 20 21 21 21 21 21 20 20 19 18 20 20 20 19 18 18 17 16 16 15 15 14 14 14 14 14 14 14 14 13 13 13 13 13 13 13 13 13 13 13
19 19 19 19 20 20 20 20 21 20 19 19 19 18 19 19 19 18 18 17 16 16 15 15 14 14 14 14 14 13 13 13 13 13 13 13 12 12 12 12 12 12 12 12
19 19 20 20 21 20 20 20 20 19 19 18 19 18 18 18 18 18 17 16 16 15 14 14 14 13 13 13 13 13 13 13 13 12 12 12 12 12 12 12 12 12 12 12
19 18 19 19 20 20 19 19 19 19 19 19 18 18 18 18 17 17 16 15 15 14 14 13 13 13 13 13 12 12 12 12 12 12 12 12 11 11 11 11 11 11 11 11
18 18 18 18 19 19 17 18 19 19 18 18 17 17 17 17 16 16 15 14 14 13 13 13 12 12 12 12 12 12 12 12 11 11 11 11 11 11 11 10 10 10 10 10
18 18 17 17 18 16 17 19 19 18 18 18 17 17 16 16 15 14 14 13 13 12 12 12 11 11 11 11 11 11 11 11 11 11 11 10 10 10 10 10 10 10 10 10
18 17 17 17 16 17 17 18 18 17 16 17 17 16 16 15 14 13 13 12 12 11 11 11 11 11 11 11 11 11 11 10 10 10 10 10 10 10 10 9 9 9 9 9
17 17 16 16 16 16 16 17 17 17 15 16 16 16 15 15 13 13 12 12 11 11 10 10 10 10 10 10 10 10 10 10 10 9 9 9 9 9 9 9 9 9 8 8
16 16 15 15 15 15 16 16 16 15 14 15 15 15 14 14 13 13 12 11 11 10 10 9 9 9 9 9 10 10 9 9 9 9 9 9 9 9 9 8 8 8 8 8
15 15 15 15 14 14 15 15 15 14 15 15 14 14 13 13 12 12 11 11 10 10 9 9 9 9 9 9 9 9 9 8 8 8 8 8 8 8 8 8 8 8 8 8
15 15 14 14 14 15 15 15 14 14 14 14 13 13 12 12 11 11 10 10 9 9 9 8 8 8 8 8 8 8 8 8 8 8 7 7 7 7 7 7 7 7 7 7
15 15 15 14 15 14 14 14 14 13 13 13 12 12 11 11 10 10 10 9 9 8 8 8 8 7 7 7 7 7 7 7 7 7 7 6 6 6 6 6 6 6 6 6
14 14 14 14 14 14 13 13 13 12 12 12 11 11 11 10 10 9 9 8 8 8 7 7 7 7 6 6 6 6 6 6 6 6 6 6 5 5 5 5 5 5 5 5
14 13 13 13 13 13 12 12 12 11 11 11 11 10 10 10 9 9 8 8 7 7 7 6 6 6 6 6 5 5 5 5 5 5 5 5 5 5 5 5 5 5 5 5
Wind_Speed
8 6 6 6 7 6 6 6 4 2 3 4 4 3 4 4 4 3 4 4 5 5 5 6 5 5 4 3 3 4 4 3 4 2 2 2 2 2 2 3 3 3 3 4
6 7 7 7 6 7 7 6 5 2 2 3 3 4 2 4 4 3 2 3 3 4 4 4 5 4 3 2 1 2 2 3 4 3 3 2 3 2 2 2 2 3 3 3
7 4 5 7 6 6 7 6 5 4 4 5 5 5 5 4 3 3 3 2 2 4 5 5 4 4 3 1 1 1 2 3 3 3 3 3 3 2 2 2 1 2 2 3
5 6 6 6 6 7 7 4 5 5 6 5 6 4 4 5 5 5 4 3 3 2 4 5 5 4 3 2 1 1 2 2 3 3 2 3 3 2 2 2 1 1 2 2
4 4 5 6 6 6 5 5 7 8 8 9 9 5 3 5 4 5 5 4 4 3 3 4 5 5 4 3 2 2 2 2 2 2 2 2 2 2 2 2 2 2 1 1
5 4 4 5 5 6 5 7 9 9 6 8 9 6 2 2 2 3 4 4 4 3 3 3 4 5 4 3 3 2 2 2 2 1 1 2 2 2 3 2 2 2 1 1
6 6 4 3 5 5 6 5 4 4 6 6 4 3 2 3 4 4 4 2 3 4 3 3 4 5 4 4 2 1 2 2 2 1 2 1 1 1 2 3 3 2 1 1
6 5 5 4 5 5 7 6 4 3 4 3 4 2 3 4 6 5 5 4 4 4 3 4 5 4 3 3 2 1 1 1 1 1 1 1 1 1 1 1 2 2 1 1
4 2 2 3 4 6 6 5 6 7 8 7 3 4 5 6 6 5 5 4 4 4 5 5 4 4 4 3 2 2 2 2 1 1 1 1 1 1 0 1 1 2 2 1
6 4 3 2 4 6 6 6 4 5 4 5 3 3 2 5 4 4 4 5 5 4 4 4 4 4 3 3 2 1 2 2 2 1 1 1 1 1 1 1 1 1 2 2
7 6 4 4 6 6 6 7 5 5 5 4 3 0 3 4 4 4 5 5 5 5 4 4 4 3 3 3 3 2 1 2 2 1 1 1 1 1 2 1 1 1 1 2
5 5 7 7 4 3 5 6 6 5 5 5 4 0 5 6 5 6 6 5 5 5 4 4 4 3 3 3 2 2 1 2 2 1 1 1 1 1 1 1 0 0 0 1
5 5 6 4 4 4 5 6 7 7 6 6 5 1 3 5 5 5 5 5 5 5 5 4 4 3 3 3 2 2 2 1 1 1 1 1 1 1 0 0 1 1 1 1
4 6 7 7 5 4 6 6 6 6 5 6 6 3 1 2 4 4 4 4 4 4 4 4 3 3 2 2 2 2 1 1 1 1 1 1 1 1 0 1 1 1 1 1
4 7 9 10 8 7 6 6 6 7 7 7 6 3 1 2 2 3 4 3 4 4 4 4 4 3 2 2 1 1 1 1 1 1 1 1 1 1 2 2 2 2 2 2
4 7 9 10 9 8 9 9 8 9 8 8 6 4 3 3 3 3 4 4 4 4 3 4 4 4 3 3 2 2 2 1 1 1 1 1 1 1 2 2 2 2 2 2
5 7 8 8 8 7 8 7 7 5 5 5 5 3 2 3 4 3 3 3 3 4 5 4 4 4 4 3 2 1 2 2 2 2 2 2 2 2 2 2 2 2 2 2
7 7 5 6 7 8 1 2 1 2 2 2 1 1 1 2 3 3 4 4 4 4 5 5 5 4 4 4 3 2 2 2 2 2 3 3 2 1 1 1 1 1 1 1
7 6 5 5 6 6 3 1 1 2 3 2 1 1 1 2 3 3 4 4 3 3 4 4 4 4 4 4 4 3 3 3 3 3 3 3 2 1 1 1 1 1 1 1
5 6 5 6 6 4 1 2 3 2 2 2 1 1 1 1 1 0 2 3 4 3 3 3 3 4 4 4 4 3 3 3 3 3 2 2 1 1 1 1 1 1 1 1
4 5 7 8 7 3 2 1 2 2 0 3 3 2 1 0 0 1 2 3 3 3 3 3 3 3 4 4 3 3 3 3 2 2 2 2 2 2 2 1 1 1 1 2
3 3 4 5 5 3 2 0 1 2 4 4 4 4 3 3 3 3 3 3 3 3 3 3 3 3 4 4 3 3 3 3 3 3 2 2 2 2 2 2 2 2 2 2
2 2 2 2 1 1 1 1 3 4 4 4 4 4 3 2 2 2 2 2 3 3 3 3 2 3 3 4 4 4 3 3 2 2 2 2 3 3 2 2 2 2 2 1
2 3 3 3 1 2 2 2 3 4 3 3 3 3 2 2 2 2 2 2 2 2 2 2 2 2 3 3 4 3 3 3 2 2 2 2 2 2 2 2 2 2 1 1
3 3 4 5 3 3 3 3 4 3 2 2 3 2 2 2 2 2 1 1 2 2 2 2 2 2 2 3 3 3 3 3 2 2 2 2 1 1 2 2 2 2 2 2
5 5 5 4 3 3 3 3 3 3 2 2 3 2 2 2 2 2 2 2 2 2 2 2 2 2 2 3 3 3 3 3 2 2 2 1 1 2 2 2 2 3 2 3
Wind_Direction
213 225 229 232 235 248 260 266 259 199 174 193 214 216 174 172 180 173 162 149 146 138 126 121 113 105 104 86 94 108 120 127 119 110 110 111 107 91 77 74 74 85 84 86
218 233 247 247 243 246 263 275 278 236 208 232 224 238 198 176 180 164 147 144 142 139 129 125 122 116 108 113 98 108 118 122 117 122 122 113 103 98 92 75 59 61 67 76
228 248 241 240 240 248 249 251 261 266 262 245 243 243 208 183 177 169 170 169 161 156 149 140 128 122 111 114 165 129 106 101 107 104 101 100 96 98 90 83 62 46 48 61
243 257 257 250 247 252 253 255 262 263 267 254 239 252 207 170 178 181 180 176 163 160 147 146 143 135 136 124 121 102 105 105 104 104 108 146 142 134 140 142 137 103 57 64
242 254 268 261 261 263 264 275 261 252 254 266 254 250 215 167 180 174 168 162 149 144 134 139 145 146 140 127 114 120 112 104 90 112 134 140 132 143 141 135 128 119 80 59
254 255 263 273 275 271 268 269 260 245 242 251 247 239 210 169 161 144 128 132 140 141 135 129 124 121 120 106 85 88 109 91 87 90 119 137 149 169 158 154 151 154 140 126
227 233 235 264 271 253 255 255 257 228 220 236 235 218 146 99 90 92 91 98 108 115 123 122 116 119 115 109 93 63 94 90 83 79 72 83 140 175 167 160 163 152 143 130
241 226 206 225 251 261 248 240 251 269 258 265 243 195 127 109 92 92 97 86 87 101 101 100 104 105 109 116 127 117 120 123 101 111 97 85 54 45 97 142 148 145 147 153
285 240 193 222 250 269 266 247 254 269 278 276 236 160 141 112 105 100 92 87 83 89 93 91 95 101 102 109 117 134 125 131 142 148 110 103 92 57 24 165 147 145 153 156
286 276 239 248 244 235 262 291 276 257 273 271 263 241 170 139 128 120 99 81 70 72 92 99 99 99 103 108 120 115 100 106 109 110 114 120 128 124 75 74 85 125 161 159
275 267 239 215 222 237 218 241 255 268 262 266 266 311 49 98 112 104 95 84 78 70 72 91 97 97 101 105 102 90 81 78 77 78 74 108 115 114 117 126 139 159 182 166
272 272 257 241 221 227 250 251 253 257 268 271 273 186 72 74 80 80 78 80 72 72 71 75 91 98 97 90 95 98 88 76 86 85 74 103 114 111 129 146 112 68 93 129
318 274 265 234 214 210 239 256 267 273 275 269 264 187 105 94 90 81 76 80 75 68 67 64 69 78 97 100 97 93 88 79 80 82 74 62 80 75 65 105 96 77 20 2
312 273 270 271 296 277 246 255 262 260 262 268 267 248 139 72 72 83 83 75 76 64 61 58 58 47 55 89 102 99 107 123 112 95 91 57 37 28 35 64 85 82 27 357
273 273 278 282 286 290 287 268 256 251 256 264 279 277 336 63 71 75 77 67 63 60 48 41 33 34 37 60 94 100 88 85 103 113 95 47 38 23 23 50 61 55 29 8
261 272 280 279 271 265 274 273 258 248 253 258 269 286 3 14 45 63 68 59 44 46 40 33 24 21 16 22 46 62 57 53 81 102 99 82 60 50 43 36 60 54 27 13
251 269 279 275 273 269 260 264 255 244 247 255 264 279 349 6 37 44 52 54 41 27 24 25 22 16 7 6 7 66 77 56 43 58 64 70 59 46 31 18 36 45 24 29
263 273 276 274 267 252 240 38 340 272 285 298 298 341 347 24 61 61 59 57 41 29 23 17 10 11 9 4 10 45 64 67 49 45 52 56 59 56 40 13 354 3 28 32
258 260 266 266 263 259 236 316 315 271 275 313 298 352 28 74 88 59 50 59 49 31 25 16 359 0 9 10 16 35 46 53 42 35 47 41 32 33 37 17 340 5 28 359
244 254 259 267 265 261 334 47 347 296 239 35 4 328 60 110 241 283 50 52 47 37 29 22 5 8 17 13 23 41 46 51 38 31 44 40 25 26 26 0 345 6 358 328
224 235 241 256 259 260 5 21 311 251 346 40 16 15 44 337 1 78 64 60 53 40 32 33 25 19 17 8 19 33 38 41 33 29 39 36 30 31 27 15 22 16 349 328
238 246 242 247 246 251 54 359 316 5 31 32 27 23 42 49 56 84 78 66 63 49 40 42 35 25 20 16 25 34 23 21 33 36 41 43 35 24 18 27 23 17 5 348
217 266 280 258 248 76 128 27 1 7 6 18 22 28 49 41 37 72 77 65 57 43 41 44 43 33 31 26 29 31 12 10 29 38 32 36 40 35 30 32 35 31 28 12
260 287 268 278 279 339 354 5 10 13 3 17 34 35 34 37 44 56 66 55 47 33 35 33 33 29 29 32 30 16 3 5 32 38 32 28 34 35 31 24 29 33 25 8
290 287 272 268 283 315 334 353 4 4 10 21 30 37 30 36 35 40 35 32 34 28 36 35 32 22 28 32 32 23 11 16 28 27 28 20 22 34 34 30 31 42 46 44
265 268 263 264 272 290 309 351 6 360 5 23 29 28 39 47 37 27 17 31 31 31 38 40 32 23 27 30 26 25 17 19 19 11 10 14 28 33 26 21 19 31 34 36
Height
1490 1493 1495 1492 1490 1492 1492 1494 1496 1494 1491 1496 1499 1500 1500 1502 1502 1504 1505 1508 1510 1512 1515 1516 1517 1519 1520 1521 1522 1523 1524 1525 1526 1527 1528 1529 1529 1530 1531 1531 1532 1532 1532 1533
1490 1493 1489 1487 1487 1489 1491 1496 1497 1494 1491 1494 1498 1499 1497 1499 1500 1502 1504 1507 1509 1511 1513 1515 1516 1517 1519 1520 1521 1522 1523 1524 1525 1526 1527 1528 1528 1529 1530 1531 1531 1531 1532 1532
1492 1490 1486 1487 1488 1491 1493 1496 1498 1498 1494 1493 1498 1502 1498 1497 1499 1501 1503 1505 1507 1509 1511 1513 1515 1516 1517 1518 1520 1521 1521 1522 1523 1524 1526 1526 1527 1528 1529 1529 1530 1530 1531 1531
1488 1487 1486 1488 1489 1491 1495 1491 1493 1495 1500 1502 1498 1511 1500 1495 1497 1499 1501 1503 1506 1508 1509 1511 1513 1514 1515 1517 1518 1519 1520 1521 1522 1523 1523 1525 1525 1526 1527 1528 1529 1529 1529 1530
1490 1488 1489 1490 1490 1489 1491 1489 1491 1493 1498 1502 1496 1504 1502 1493 1498 1497 1499 1501 1504 1506 1508 1509 1511 1512 1514 1515 1516 1517 1519 1519 1520 1521 1522 1523 1524 1525 1526 1527 1527 1528 1528 1528
1488 1487 1488 1489 1488 1487 1487 1489 1489 1490 1496 1509 1497 1501 1506 1496 1496 1495 1497 1499 1502 1504 1506 1508 1509 1511 1512 1513 1515 1516 1517 1518 1518 1519 1520 1521 1522 1523 1524 1524 1525 1526 1526 1527
1491 1488 1487 1489 1490 1489 1490 1497 1507 1508 1511 1506 1488 1496 1502 1493 1491 1494 1497 1499 1501 1503 1505 1507 1508 1509 1511 1512 1513 1514 1515 1516 1517 1517 1518 1519 1520 1521 1522 1522 1523 1524 1525 1525
1495 1495 1488 1488 1491 1493 1490 1494 1511 1517 1512 1501 1489 1496 1497 1490 1492 1495 1497 1499 1501 1503 1504 1506 1507 1508 1510 1511 1512 1513 1513 1514 1515 1516 1517 1517 1518 1519 1519 1520 1521 1522 1523 1524
1494 1495 1487 1487 1488 1490 1492 1492 1491 1501 1500 1503 1494 1492 1492 1490 1492 1495 1497 1499 1501 1502 1504 1505 1506 1507 1509 1510 1511 1511 1512 1513 1514 1515 1515 1516 1516 1517 1518 1519 1520 1521 1521 1522
1492 1497 1490 1488 1489 1489 1491 1491 1495 1502 1509 1511 1501 1497 1499 1495 1495 1495 1497 1499 1501 1503 1504 1505 1506 1507 1508 1509 1510 1511 1511 1512 1513 1514 1514 1515 1515 1516 1516 1517 1518 1519 1520 1520
1491 1496 1494 1491 1492 1492 1494 1495 1495 1497 1497 1508 1512 1507 1490 1492 1493 1495 1498 1500 1502 1503 1504 1505 1506 1506 1507 1508 1509 1509 1510 1511 1512 1512 1513 1513 1514 1515 1515 1515 1516 1517 1518 1519
1491 1494 1495 1489 1484 1485 1487 1490 1493 1504 1501 1496 1504 1509 1490 1492 1494 1496 1499 1501 1502 1504 1505 1505 1506 1506 1507 1507 1508 1508 1509 1510 1511 1511 1511 1512 1512 1513 1513 1514 1514 1515 1516 1517
1495 1496 1500 1498 1494 1488 1489 1488 1489 1491 1495 1499 1506 1508 1492 1493 1495 1498 1500 1502 1503 1504 1505 1506 1506 1506 1506 1507 1507 1508 1508 1509 1509 1510 1510 1511 1511 1511 1512 1512 1512 1513 1514 1515
1498 1496 1499 1503 1496 1489 1491 1490 1488 1492 1500 1501 1499 1500 1496 1495 1496 1498 1501 1502 1503 1504 1505 1506 1506 1506 1506 1506 1507 1507 1508 1508 1508 1508 1509 1509 1510 1510 1510 1511 1511 1511 1512 1513
1497 1498 1493 1490 1487 1487 1489 1490 1490 1492 1493 1498 1496 1497 1496 1496 1497 1499 1500 1502 1503 1504 1505 1505 1505 1505 1505 1506 1506 1506 1506 1507 1507 1507 1507 1507 1508 1508 1508 1509 1509 1510 1510 1510
1496 1497 1493 1492 1487 1487 1490 1488 1488 1490 1490 1492 1494 1497 1495 1496 1497 1499 1500 1502 1503 1503 1504 1504 1504 1504 1504 1505 1505 1504 1504 1505 1505 1505 1506 1506 1506 1506 1506 1507 1507 1507 1508 1508
1496 1496 1497 1495 1487 1489 1495 1488 1487 1488 1488 1491 1495 1497 1495 1496 1498 1499 1501 1502 1503 1503 1504 1504 1504 1504 1504 1503 1503 1503 1503 1503 1503 1504 1504 1504 1504 1504 1505 1505 1505 1506 1506 1506
1495 1496 1497 1496 1495 1502 1493 1484 1485 1487 1489 1489 1491 1493 1495 1497 1499 1500 1501 1502 1502 1503 1503 1503 1503 1503 1503 1502 1502 1502 1502 1502 1502 1502 1502 1502 1502 1503 1503 1503 1504 1504 1504 1503
1492 1495 1498 1496 1497 1493 1489 1486 1486 1489 1491 1490 1491 1493 1495 1496 1498 1500 1501 1501 1502 1502 1502 1502 1502 1502 1501 1500 1500 1500 1500 1500 1500 1500 1500 1500 1501 1501 1501 1501 1501 1502 1502 1502
1491 1492 1497 1496 1499 1499 1493 1488 1487 1490 1494 1492 1492 1493 1494 1495 1499 1500 1500 1501 1501 1501 1501 1501 1500 1500 1499 1498 1498 1498 1498 1498 1498 1498 1498 1498 1499 1499 1499 1499 1499 1500 1500 1500
1494 1495 1497 1497 1497 1495 1491 1489 1488 1497 1497 1493 1492 1493 1494 1495 1497 1499 1499 1499 1500 1500 1500 1499 1499 1498 1497 1497 1497 1496 1496 1496 1497 1497 1497 1497 1497 1497 1497 1497 1497 1497 1497 1497
1493 1495 1495 1495 1498 1500 1492 1491 1493 1494 1492 1492 1493 1494 1494 1495 1496 1496 1497 1498 1498 1498 1498 1498 1497 1496 1496 1495 1495 1494 1495 1495 1495 1495 1495 1495 1495 1495 1495 1494 1494 1495 1495 1495
1490 1493 1493 1494 1496 1492 1491 1492 1493 1492 1493 1493 1494 1494 1494 1495 1495 1496 1496 1497 1497 1497 1496 1496 1496 1495 1494 1494 1493 1493 1493 1493 1493 1493 1493 1493 1493 1492 1492 1492 1491 1492 1492 1492
1489 1489 1490 1491 1490 1491 1491 1492 1492 1493 1493 1493 1494 1494 1494 1494 1495 1495 1495 1495 1495 1495 1495 1494 1494 1494 1493 1492 1492 1492 1491 1491 1491 1490 1490 1490 1490 1490 1490 1490 1489 1490 1490 1490
1490 1490 1490 1491 1491 1491 1491 1492 1492 1492 1492 1493 1493 1493 1494 1493 1493 1493 1494 1494 1494 1494 1494 1493 1493 1493 1492 1491 1490 1490 1490 1490 1489 1489 1489 1489 1488 1488 1488 1488 1488 1488 1488 1488
1490 1490 1491 1491 1491 1492 1492 1492 1492 1492 1492 1492 1492 1492 1492 1492 1492 1492 1493 1493 1493 1493 1492 1492 1491 1491 1490 1490 1489 1489 1489 1488 1488 1487 1487 1487 1487 1486 1486 1486 1486 1486 1486 1486